Weather History for Alpena, MI

Change the Weather History Date:

Tuesday, April 2, 2013

  Actual Average Record
Temperature  
Mean Temperature 27 °F 36 °F  
Max Temperature 35 °F 46 °F 83 °F (2010)
Min Temperature 19 °F 26 °F 0 °F (1965)
Degree Days  
Heating Degree Days 38 29  
Month to date heating degree days 78 59  
Since 1 July heating degree days 6529 6915  
Cooling Degree Days 0 0  
Month to date cooling degree days 0 0  
Year to date cooling degree days 0 0  
Moisture  
Dew Point 11 °F    
Average Humidity 60    
Maximum Humidity 84    
Minimum Humidity 35    
Precipitation  
Precipitation T in 0.07 in 0.93 in (1990)
Month to date precipitation T 0.15  
Year to date precipitation 5.86 4.99  
Snow  
Snow T in 0.40 in 7.40 in (1936)
Month to date snowfall T 0.7  
Since 1 July snowfall 45.5 79.0  
Snow Depth 1.00 in    
Sea Level Pressure  
Sea Level Pressure 30.11 in    
Wind  
Wind Speed 10 mph (WNW)    
Max Wind Speed 22 mph    
Max Gust Speed 36 mph    
Visibility 10 miles    
Events Snow    
T = Trace of Precipitation, MM = Missing Value Source: NWS Daily Summary

Daily Weather History Graph

Daily Weather History Graph

Search for Another Location

Airport:

Trip Planner

Search our weather history database for the weather conditions in past years. The results will help you decide how hot, cold, wet, or windy it might be!

Date:

Astronomy

Apr. 02, 2013 Rise Set
Actual Time 7:12 AM EDT 8:03 PM EDT
Civil Twilight 6:42 AM EDT 8:33 PM EDT
Nautical Twilight 6:07 AM EDT 9:09 PM EDT
Astronomical Twilight 5:30 AM EDT 9:46 PM EDT
Moon 2:18 AM EDT (4/2) 11:51 AM EDT (4/2)
Length of Visible Light 13h 50m
Length of Day
12h 51m
Waning Gibbous, 56% of the Moon is Illuminated
Apr 2
Waning Gibbous
Apr 3
Last Quarter
Apr 10
New
Apr 18
First Quarter
Apr 25
Full

Hourly Weather History & Observations

Time (EDT) Temp. Windchill Dew Point Humidity Pressure Visibility Wind Dir Wind Speed Gust Speed Precip Events Conditions
12:54 AM 21.0 °F 13.4 °F 10.0 °F 63% 30.06 in 10.0 mi West 5.8 mph - N/A   Clear
1:54 AM 19.9 °F 13.4 °F 10.0 °F 65% 30.06 in 10.0 mi WSW 4.6 mph - N/A   Scattered Clouds
2:54 AM 19.9 °F 13.4 °F 10.9 °F 68% 30.05 in 10.0 mi WSW 4.6 mph - N/A   Overcast
3:54 AM 21.0 °F 16.2 °F 10.9 °F 65% 30.04 in 10.0 mi WSW 3.5 mph - N/A   Overcast
4:12 AM 21.2 °F 14.9 °F 12.2 °F 68% 30.01 in 9.0 mi West 4.6 mph - N/A   Overcast
4:30 AM 19.4 °F 11.5 °F 12.2 °F 74% 30.01 in 9.0 mi West 5.8 mph - 0.00 in   Scattered Clouds
4:54 AM 19.9 °F 14.9 °F 12.9 °F 74% 30.04 in 9.0 mi West 3.5 mph - 0.00 in   Partly Cloudy
5:54 AM 19.9 °F 12.1 °F 15.1 °F 81% 30.05 in 3.0 mi West 5.8 mph - 0.00 in Snow Light Snow
6:54 AM 19.0 °F 11.1 °F 14.0 °F 81% 30.06 in 10.0 mi WSW 5.8 mph - 0.00 in   Clear
7:54 AM 19.9 °F 12.1 °F 15.1 °F 81% 30.08 in 10.0 mi West 5.8 mph - N/A   Clear
8:54 AM 25.0 °F 19.3 °F 16.0 °F 69% 30.10 in 10.0 mi West 4.6 mph - N/A   Clear
9:54 AM 27.0 °F 18.7 °F 14.0 °F 58% 30.10 in 10.0 mi NW 8.1 mph 23.0 mph N/A   Scattered Clouds
10:54 AM 28.0 °F 17.0 °F 10.9 °F 49% 30.10 in 10.0 mi WNW 13.8 mph 26.5 mph N/A   Overcast
11:54 AM 30.0 °F 20.0 °F 12.9 °F 49% 30.10 in 10.0 mi West 12.7 mph 23.0 mph 0.00 in   Overcast
12:54 PM 32.0 °F 22.5 °F 10.9 °F 42% 30.10 in 10.0 mi WNW 12.7 mph 35.7 mph 0.00 in   Overcast
1:54 PM 32.0 °F 23.0 °F 12.0 °F 44% 30.11 in 10.0 mi WNW 11.5 mph 24.2 mph N/A   Overcast
2:54 PM 33.1 °F 22.2 °F 10.0 °F 38% 30.11 in 10.0 mi NW 17.3 mph 29.9 mph N/A   Mostly Cloudy
3:54 PM 33.1 °F 22.2 °F 10.9 °F 40% 30.11 in 10.0 mi WNW 17.3 mph 28.8 mph N/A   Mostly Cloudy
4:54 PM 32.0 °F 21.6 °F 12.0 °F 44% 30.13 in 10.0 mi NW 15.0 mph 27.6 mph N/A   Mostly Cloudy
5:54 PM 30.9 °F 21.7 °F 10.0 °F 42% 30.15 in 10.0 mi WNW 11.5 mph 21.9 mph N/A   Overcast
6:54 PM 28.9 °F 19.2 °F 9.0 °F 43% 30.17 in 10.0 mi NW 11.5 mph 23.0 mph N/A   Mostly Cloudy
7:54 PM 28.0 °F 18.1 °F 5.0 °F 38% 30.19 in 10.0 mi WNW 11.5 mph 27.6 mph N/A   Clear
8:54 PM 27.0 °F 15.6 °F 7.0 °F 43% 30.20 in 10.0 mi NW 13.8 mph 20.7 mph N/A   Clear
9:54 PM 26.1 °F 15.0 °F 7.0 °F 44% 30.22 in 10.0 mi WNW 12.7 mph 21.9 mph N/A   Clear
10:54 PM 25.0 °F 16.3 °F 8.1 °F 49% 30.23 in 10.0 mi NW 8.1 mph 17.3 mph N/A   Clear
11:54 PM 23.0 °F 15.8 °F 9.0 °F 55% 30.24 in 10.0 mi Variable 5.8 mph - N/A   Clear